Le nostre stazioni meteo in Italia

Pubblicità
Il mio iltempo24.it
Genova/Sestri, Italia (16120): Temperatura & dewpoint: 02.12.2019 14:00:00 - 08.12.2019 14:00:00 (CET)Genova/Sestri, Italia (16120): velocità del vento: 02.12.2019 14:00:00 - 08.12.2019 14:00:00 (CET)Genova/Sestri, Italia (16120): direzione del vento: 02.12.2019 14:00:00 - 08.12.2019 14:00:00 (CET)Genova/Sestri, Italia (16120): reduced air pressure: 02.12.2019 14:00:00 - 08.12.2019 14:00:00 (CET)Genova/Sestri, Italia (16120): visibility: 02.12.2019 14:00:00 - 08.12.2019 14:00:00 (CET)
Data & Tempo tt [°C] td [°C] ff [km/h] ff [kn] dd ppp [hPa] vv [km]
08.12.2019 14:00:00 16,0 11,0 16 9 SE - 10
08.12.2019 13:00:00 16,5 11,6 16 9 SE 1018,9 10
08.12.2019 12:00:00 16,0 10,0 16 9 SE - 10
08.12.2019 11:00:00 15,0 10,0 9 5 ESE - 10
08.12.2019 10:00:00 12,8 8,8 8 4 NNE 1020,5 10
08.12.2019 09:00:00 12,0 9,0 5 3 NNE - 10
08.12.2019 08:00:00 12,0 9,0 5 3 ENE - 10
08.12.2019 07:00:00 11,8 9,0 9 5 NNE 1019,8 10
08.12.2019 06:00:00 12,0 9,0 9 5 NNE - 10
08.12.2019 05:00:00 12,0 9,0 9 5 NNE - 10
08.12.2019 04:00:00 12,1 8,8 9 5 NNE 1019,5 10
08.12.2019 03:00:00 12,0 9,0 4 2 - - 10
08.12.2019 02:00:00 12,0 9,0 9 5 NNE - 10
08.12.2019 01:00:00 12,4 9,2 9 5 NNE 1020,2 10
08.12.2019 00:00:00 12,0 8,0 9 5 NNE - 10
07.12.2019 23:00:00 13,0 9,0 9 5 NNE - 10
07.12.2019 22:00:00 12,6 8,4 9 5 NNE 1019,8 10
07.12.2019 21:00:00 13,0 8,0 9 5 NNE - 10
07.12.2019 20:00:00 13,0 9,0 9 5 NNE - 10
07.12.2019 19:00:00 13,7 9,3 18 10 E 1019,2 10
07.12.2019 18:00:00 14,0 9,0 9 5 ENE - 10
07.12.2019 17:00:00 14,0 9,0 22 12 E - 10
07.12.2019 16:00:00 14,9 10,1 26 14 ESE 1018,0 10
07.12.2019 15:00:00 15,0 10,0 26 14 ESE - 10
07.12.2019 14:00:00 15,0 10,0 21 11 ESE - 10
07.12.2019 13:00:00 15,8 9,9 18 10 E 1018,1 10
07.12.2019 12:00:00 14,0 9,0 8 4 NE - 10
07.12.2019 11:00:00 14,0 9,0 11 6 E - 10
07.12.2019 10:00:00 13,5 9,2 15 8 E 1019,6 10
07.12.2019 09:00:00 12,0 8,0 4 2 - - 10
07.12.2019 08:00:00 11,0 7,0 8 4 NNE - 10
07.12.2019 07:00:00 11,0 6,5 8 4 NNE 1018,8 10
07.12.2019 06:00:00 11,0 6,0 9 5 NNE - 10
07.12.2019 05:00:00 10,0 6,0 8 4 NNE - 10
07.12.2019 04:00:00 10,3 5,2 9 5 NNE 1019,2 10
07.12.2019 03:00:00 11,0 5,0 9 5 NNE - 10
07.12.2019 02:00:00 11,0 5,0 11 6 NNE - 10
07.12.2019 01:00:00 10,7 4,3 9 5 NNE 1020,1 10
07.12.2019 00:00:00 11,0 5,0 9 5 NE - 10
06.12.2019 23:00:00 11,0 5,0 11 6 NNE - 10
06.12.2019 22:00:00 10,9 5,3 11 6 NNE 1020,7 10
06.12.2019 21:00:00 11,0 6,0 11 6 NNE - 10
06.12.2019 20:00:00 11,0 5,0 8 4 NNE - 10
06.12.2019 19:00:00 10,8 5,0 11 6 NNE 1021,1 10
06.12.2019 18:00:00 11,0 5,0 11 6 NNE - 10
06.12.2019 17:00:00 11,0 5,0 13 7 NNE - 10
06.12.2019 16:00:00 11,1 4,4 11 6 NNE 1021,1 10
06.12.2019 15:00:00 11,0 4,0 11 6 NNE - 10
06.12.2019 14:00:00 11,0 3,0 15 8 NNE - 10
06.12.2019 13:00:00 10,6 2,8 16 9 NNE 1022,7 10
06.12.2019 12:00:00 10,0 2,0 15 8 NE - 10
06.12.2019 11:00:00 10,0 2,0 13 7 N - 10
06.12.2019 10:00:00 9,4 2,4 15 8 NNE 1024,1 10
06.12.2019 09:00:00 9,0 2,0 16 9 NNE - 10
06.12.2019 08:00:00 9,0 1,0 16 9 NNE - 10
06.12.2019 07:00:00 9,0 0,7 15 8 N 1023,4 10
06.12.2019 06:00:00 9,0 0,0 15 8 NNE - 10
06.12.2019 05:00:00 8,0 1,0 13 7 NE - 10
06.12.2019 04:00:00 8,7 0,1 15 8 NNE 1024,2 10
06.12.2019 03:00:00 9,0 0,0 15 8 NNE - 10
06.12.2019 02:00:00 9,0 0,0 16 9 NE - 10
06.12.2019 01:00:00 9,1 -0,7 13 7 NNE 1024,1 10
06.12.2019 00:00:00 9,0 0,0 13 7 NE - 10
05.12.2019 23:00:00 9,0 0,0 11 6 NE - 10
05.12.2019 22:00:00 9,1 -0,6 13 7 NNE 1024,7 10
05.12.2019 21:00:00 9,0 0,0 15 8 NNE - 10
05.12.2019 20:00:00 9,0 -1,0 13 7 NNE - 10
05.12.2019 19:00:00 9,3 -1,0 11 6 NNE 1024,3 10
05.12.2019 18:00:00 9,0 0,0 13 7 NE - 10
05.12.2019 17:00:00 10,0 -1,0 9 5 NE - 10
05.12.2019 16:00:00 9,3 0,1 15 8 NE 1023,3 10
05.12.2019 15:00:00 10,0 0,0 18 10 NNE - 10
05.12.2019 14:00:00 9,0 1,0 24 13 NE - 10
05.12.2019 13:00:00 8,7 0,5 28 15 NE 1023,2 10
05.12.2019 12:00:00 9,0 1,0 24 13 NE - 10
05.12.2019 11:00:00 8,0 0,0 26 14 NE - 10
05.12.2019 10:00:00 7,6 0,5 24 13 NE 1023,6 10
05.12.2019 09:00:00 8,0 0,0 24 13 NE - 10
05.12.2019 08:00:00 7,0 0,0 22 12 NE - 10
05.12.2019 07:00:00 7,1 0,1 22 12 NE 1021,9 10
05.12.2019 06:00:00 7,0 0,0 16 9 NE - 10
05.12.2019 05:00:00 8,0 0,0 21 11 NE - 10
05.12.2019 04:00:00 7,7 -0,2 21 11 NE 1021,2 10
05.12.2019 03:00:00 8,0 -1,0 21 11 NE - 10
05.12.2019 02:00:00 8,0 -1,0 16 9 NE - 10
05.12.2019 01:00:00 7,9 -0,8 15 8 NE 1021,2 10
05.12.2019 00:00:00 8,0 -1,0 15 8 NE - 10
04.12.2019 23:00:00 9,0 -1,0 8 4 NNE - 10
04.12.2019 22:00:00 9,1 -1,4 11 6 N 1021,1 10
04.12.2019 21:00:00 9,0 -1,0 18 10 N - 10
04.12.2019 20:00:00 9,0 -1,0 21 11 NNE - 10
04.12.2019 19:00:00 9,1 -1,1 21 11 N 1021,1 10
04.12.2019 18:00:00 - - - - - - -
04.12.2019 17:00:00 - - - - - - -
04.12.2019 16:00:00 9,6 -0,5 24 13 N 1020,7 10
04.12.2019 15:00:00 11,0 0,0 24 13 N - 10
04.12.2019 14:00:00 10,0 0,0 22 12 N - 10
04.12.2019 13:00:00 12,2 -0,7 18 10 N 1021,1 10
04.12.2019 12:00:00 12,0 -1,0 16 9 N - 10
04.12.2019 11:00:00 12,0 0,0 18 10 NNE - 10
04.12.2019 10:00:00 10,6 -1,1 16 9 N 1022,5 10
04.12.2019 09:00:00 9,0 -1,0 9 5 NE - 10
04.12.2019 08:00:00 9,0 -1,0 9 5 NNE - 10
04.12.2019 07:00:00 7,2 -0,1 15 8 ENE 1022,5 10
04.12.2019 06:00:00 7,0 0,0 11 6 ENE - 10
04.12.2019 05:00:00 9,0 -1,0 13 7 NNE - 10
04.12.2019 04:00:00 9,6 -1,0 8 4 - 1022,8 10
04.12.2019 03:00:00 10,0 0,0 8 4 - - 10
04.12.2019 02:00:00 10,0 0,0 11 6 NE - 10
04.12.2019 01:00:00 9,5 0,3 11 6 NNE 1023,7 10
04.12.2019 00:00:00 10,0 0,0 21 11 NNE - 10
03.12.2019 23:00:00 10,0 1,0 11 6 NE - 10
03.12.2019 22:00:00 10,4 0,9 13 7 NE 1023,9 10
03.12.2019 21:00:00 10,0 2,0 11 6 NE - 10
03.12.2019 20:00:00 11,0 2,0 8 4 - - 10
03.12.2019 19:00:00 11,6 1,5 15 8 N 1022,5 10
03.12.2019 18:00:00 11,0 3,0 18 10 NNO - 10
03.12.2019 17:00:00 12,0 4,0 15 8 NNO - 10
03.12.2019 16:00:00 13,6 2,8 22 12 NNO 1020,8 10
03.12.2019 15:00:00 15,0 4,0 22 12 N - 10
03.12.2019 14:00:00 14,0 5,0 18 10 NNO - 10
03.12.2019 13:00:00 13,7 6,3 13 7 - 1021,4 10
03.12.2019 12:00:00 12,0 6,0 18 10 E - 10
03.12.2019 11:00:00 12,0 6,0 11 6 ENE - 10
03.12.2019 10:00:00 12,4 6,0 11 6 NE 1021,5 10
03.12.2019 09:00:00 11,0 6,0 21 11 NNE - 10
03.12.2019 08:00:00 10,0 6,0 15 8 NE - 10
03.12.2019 07:00:00 9,8 5,5 9 5 NE 1020,0 10
03.12.2019 06:00:00 10,0 5,0 8 4 ENE - 10
03.12.2019 05:00:00 10,0 6,0 11 6 N - 10
03.12.2019 04:00:00 10,4 5,5 15 8 N 1019,4 10
03.12.2019 03:00:00 - - - - - - -
03.12.2019 02:00:00 - - - - - - -
03.12.2019 01:00:00 10,2 5,4 15 8 NNE 1018,2 10
03.12.2019 00:00:00 11,0 5,0 13 7 NE - 10
02.12.2019 23:00:00 11,0 5,0 13 7 NE - 10
02.12.2019 22:00:00 10,9 4,9 15 8 NNE 1016,7 10
02.12.2019 21:00:00 11,0 5,0 16 9 NE - 10
02.12.2019 20:00:00 11,0 5,0 26 14 NE - 10
02.12.2019 19:00:00 10,5 4,8 15 8 NE 1014,8 10
02.12.2019 18:00:00 11,0 5,0 16 9 NE - 10
02.12.2019 17:00:00 11,0 6,0 18 10 NE - 10
02.12.2019 16:00:00 12,2 5,8 11 6 NE 1013,2 10
02.12.2019 15:00:00 12,0 6,0 16 9 NE - 10
02.12.2019 14:00:00 12,0 6,0 22 12 NE - 10

tt = Temperatura
td = dewpoint
ff = velocità del vento
dd = direzione del vento
ppp = reduced air pressure
vv = visibility

Stazioni seguenti

WeatherPro
AMSI
MeteoEarth